Buoy 41609

sailwx.info

Track history (hours):
 
Tides and Currents Weather Stations Pressure Air Temp Water Temp Dewpoint Dewpoint Depression Visibility Wind Speed Wind Dir Waves Ship Positions

Drifting buoy 41609

Last reported at 2014-Oct-20 09:00 UTC. Time now 2014-Oct-20 09:52 UTC.
Position N 39°55' W 070°54'.

Water temperature 21.7 ° C

Date/timePositionNaut miles runAvg speedWind from/ knotsBaromVisibWave heightAir tempDewpointWater temp
2014-Oct-20 09:00N 39°55' W 070°54'0 0.0 21.7
2014-Oct-20 07:00N 39°55' W 070°54'0 0.2 21.8
2014-Oct-20 05:00N 39°55' W 070°54'1 1.1 21.8
2014-Oct-20 04:00N 39°56' W 070°53'0 0.0 21.8
2014-Oct-20 02:00N 39°56' W 070°53'1 1.1 21.9
2014-Oct-20 01:00N 39°56' W 070°52'0 0.0 21.9
2014-Oct-20 00:00N 39°56' W 070°52'1 0.2 21.9
2014-Oct-19 21:00N 39°57' W 070°51'1 0.5 22.0
2014-Oct-19 20:00N 39°57' W 070°51'1 0.7 22.0
2014-Oct-19 19:00N 39°58' W 070°51'1 0.7 22.1
2014-Oct-19 18:00N 39°57' W 070°51'1 0.9 22.1
2014-Oct-19 17:00N 39°58' W 070°51'0 0.1 22.1
2014-Oct-19 15:00N 39°58' W 070°51'1 0.6 22.1
2014-Oct-19 14:00N 39°57' W 070°50'0 0.0 22.2
2014-Oct-19 13:00N 39°57' W 070°50'0 0.2 22.2
2014-Oct-19 11:00N 39°57' W 070°50'0 0.4 22.2
2014-Oct-19 10:00N 39°57' W 070°50'1 0.4 22.2
2014-Oct-19 08:00N 39°57' W 070°49'0 0.5 22.2
2014-Oct-19 07:00N 39°57' W 070°49'1 0.2 22.3
2014-Oct-19 02:00N 39°58' W 070°48'0 0.0 22.4
2014-Oct-19 01:00N 39°58' W 070°48'1 0.8 22.4
2014-Oct-19 00:00N 39°59' W 070°49'0 0.0 22.5
2014-Oct-18 23:00N 39°59' W 070°49'1 0.3 22.5
2014-Oct-18 21:00N 39°58' W 070°49'0 0.3 22.5
2014-Oct-18 20:00N 39°58' W 070°49'0 0.2 22.5
2014-Oct-18 19:00N 39°58' W 070°49'0 0.0 22.5
2014-Oct-18 18:00N 39°58' W 070°49'0 0.2 22.5
2014-Oct-18 17:00N 39°59' W 070°49'0 0.1 22.5
2014-Oct-18 10:00N 39°58' W 070°49'0 0.1 22.4
2014-Oct-18 09:00N 39°58' W 070°49'0 0.0 22.4
2014-Oct-18 08:00N 39°58' W 070°49'0 0.0 22.4
2014-Oct-18 07:00N 39°58' W 070°49'1 0.9 22.4
2014-Oct-18 06:00N 39°58' W 070°48'0 0.0 22.4
2014-Oct-18 05:00N 39°58' W 070°48'0 0.1 22.4
2014-Oct-18 02:00N 39°58' W 070°48'0 0.1 22.5
2014-Oct-17 23:00N 39°58' W 070°48'0 0.1 22.5
2014-Oct-17 21:00N 39°58' W 070°48'0 0.4 22.5
2014-Oct-17 20:00N 39°59' W 070°47'0 0.2 22.5
2014-Oct-17 19:00N 39°59' W 070°47'0 0.2 22.5
2014-Oct-17 17:00N 39°59' W 070°47'1 0.3 22.5
2014-Oct-17 15:00N 39°59' W 070°47'1 0.1 22.5
2014-Oct-17 11:00N 39°60' W 070°46'1 0.3 22.5
2014-Oct-17 09:00N 39°60' W 070°45'1 0.6 22.5
2014-Oct-17 07:00N 40°00' W 070°44'2 1.6 22.6
2014-Oct-17 06:00N 40°01' W 070°42'1 0.1 22.6
2014-Oct-17 02:00N 40°02' W 070°42'0 0.2 22.6
2014-Oct-17 01:00N 40°02' W 070°42'1 0.9 22.6
2014-Oct-17 00:00N 40°03' W 070°43'0 0.0 22.6
2014-Oct-16 22:00N 40°03' W 070°43'1 0.5 22.7
2014-Oct-16 19:00N 40°01' W 070°42'3 0.2 22.7
2014-Oct-16 03:00N 39°60' W 070°38'0 0.0 22.8
2014-Oct-16 02:00N 39°60' W 070°38'1 0.4 22.8
2014-Oct-16 00:00N 40°00' W 070°38'1 0.7 22.8
2014-Oct-15 23:00N 39°60' W 070°38'1 0.3 22.9
2014-Oct-15 19:00N 39°59' W 070°37'0 0.2 22.9
2014-Oct-15 18:00N 39°59' W 070°37'0 0.2 22.8
2014-Oct-15 16:00N 39°59' W 070°37'2 0.3 22.8
2014-Oct-15 09:00N 39°57' W 070°37'2 0.7 22.7
2014-Oct-15 06:00N 39°55' W 070°36'0 0.0 22.7
2014-Oct-15 02:00N 39°55' W 070°36'0 0.2 22.7
2014-Oct-14 23:00N 39°55' W 070°36'1 0.8 22.6
2014-Oct-14 22:00N 39°55' W 070°37'0 0.1 22.6
2014-Oct-14 20:00N 39°55' W 070°37'1 0.3 22.6
2014-Oct-14 18:00N 39°54' W 070°37'2 0.9 22.6
2014-Oct-14 16:00N 39°53' W 070°38'3 0.5 22.5
2014-Oct-14 11:00N 39°50' W 070°38'1 0.8 22.4
2014-Oct-14 10:00N 39°50' W 070°37'0 0.3 22.4
2014-Oct-14 09:00N 39°49' W 070°37'0 0.3 22.4
2014-Oct-14 08:00N 39°49' W 070°37'0 0.1 22.4
2014-Oct-14 06:00N 39°49' W 070°36'1 0.2 22.5
2014-Oct-14 02:00N 39°48' W 070°37'0 0.5 22.5
2014-Oct-14 01:00N 39°48' W 070°38'3 2.7 22.5
2014-Oct-14 00:00N 39°46' W 070°39'0 0.0 22.6
2014-Oct-13 23:00N 39°46' W 070°39'1 0.9 22.6
2014-Oct-13 22:00N 39°45' W 070°40'0 0.0 22.6
2014-Oct-13 21:00N 39°45' W 070°40'1 1.1 22.6
2014-Oct-13 20:00N 39°44' W 070°41'2 1.2 22.6
2014-Oct-13 18:00N 39°43' W 070°38'1 0.7 22.6
2014-Oct-13 17:00N 39°42' W 070°38'2 1.9 22.6
2014-Oct-13 16:00N 39°41' W 070°36'1 0.2 22.6
2014-Oct-13 11:00N 39°40' W 070°35'0 0.4 22.5
2014-Oct-13 10:00N 39°40' W 070°35'1 0.6 22.5
2014-Oct-13 09:00N 39°39' W 070°36'1 0.7 22.5
2014-Oct-13 08:00N 39°40' W 070°37'1 1.2 22.5
2014-Oct-13 07:00N 39°39' W 070°36'3 0.7 22.4
2014-Oct-13 02:00N 39°35' W 070°36'1 0.9 22.5
2014-Oct-13 01:00N 39°35' W 070°35'4 4.2 22.5
2014-Oct-13 00:00N 39°33' W 070°30'0 0.0 22.5
2014-Oct-12 22:00N 39°33' W 070°30'0 0.4 22.5
2014-Oct-12 21:00N 39°32' W 070°29'0 0.0 22.6
2014-Oct-12 20:00N 39°32' W 070°29'1 0.7 22.6
2014-Oct-12 19:00N 39°32' W 070°29'1 0.6 22.6
2014-Oct-12 18:00N 39°32' W 070°28'1 0.8 22.6
2014-Oct-12 17:00N 39°32' W 070°27'1 1.0 22.6
2014-Oct-12 16:00N 39°33' W 070°26'3 0.5 22.6
2014-Oct-12 10:00N 39°30' W 070°27'2 2.5 22.6
2014-Oct-12 09:00N 39°27' W 070°26'0 0.0 22.6
2014-Oct-12 07:00N 39°27' W 070°26'6 3.2 22.6
2014-Oct-12 05:00N 39°24' W 070°18'2 0.4 22.7
2014-Oct-12 00:00N 39°25' W 070°16'3 3.3 22.8
2014-Oct-11 23:00N 39°27' W 070°12'1 0.3 22.8
2014-Oct-11 21:00N 39°27' W 070°12'0 0.2 22.9
2014-Oct-11 19:00N 39°28' W 070°12'0 0.2 23.0
2014-Oct-11 17:00N 39°27' W 070°12'1 0.7 23.1
2014-Oct-11 16:00N 39°27' W 070°12'3 1.6 23.1
2014-Oct-11 14:00N 39°25' W 070°08'0 0.0 23.1
2014-Oct-11 11:00N 39°25' W 070°08'3 2.8 23.0
2014-Oct-11 10:00N 39°24' W 070°05'0 0.0 23.0
2014-Oct-11 09:00N 39°24' W 070°05'0 0.0 23.0
2014-Oct-11 08:00N 39°24' W 070°05'1 0.8 23.0
2014-Oct-11 07:00N 39°24' W 070°04'5 2.5 23.0
2014-Oct-11 05:00N 39°26' W 069°58'0 0.0 23.0
2014-Oct-11 02:00N 39°26' W 069°58'1 1.1 22.8
2014-Oct-11 01:00N 39°27' W 069°57'1 1.4 22.8
2014-Oct-11 00:00N 39°28' W 069°56'0 0.0 22.8
2014-Oct-10 22:00N 39°28' W 069°56'0 0.2 22.8
2014-Oct-10 21:00N 39°28' W 069°56'1 0.8 22.8
2014-Oct-10 20:00N 39°27' W 069°55'1 0.6 22.9
2014-Oct-10 19:00N 39°27' W 069°55'1 0.9 22.9
2014-Oct-10 18:00N 39°27' W 069°54'0 0.0 22.9
2014-Oct-10 17:00N 39°27' W 069°54'3 2.7 22.9
2014-Oct-10 16:00N 39°27' W 069°50'3 1.6 23.0
2014-Oct-10 14:00N 39°29' W 069°47'1 0.2 23.1
2014-Oct-10 10:00N 39°29' W 069°46'2 1.6 23.1
2014-Oct-10 09:00N 39°30' W 069°44'   22.9
Track history (hours):
 
Tides and Currents Weather Stations Pressure Air Temp Water Temp Dewpoint Dewpoint Depression Visibility Wind Speed Wind Dir Waves Ship Positions

Drifting buoy 41609

Last reported at 2014-Oct-20 09:00 UTC. Time now 2014-Oct-20 09:52 UTC.
Position N 39°55' W 070°54'.

Water temperature 21.7 ° C

Date/timePositionNaut miles runAvg speedWind from/ knotsBaromVisibWave heightAir tempDewpointWater temp
2014-Oct-20 09:00N 39°55' W 070°54'0 0.0 21.7
2014-Oct-20 07:00N 39°55' W 070°54'0 0.2 21.8
2014-Oct-20 05:00N 39°55' W 070°54'1 1.1 21.8
2014-Oct-20 04:00N 39°56' W 070°53'0 0.0 21.8
2014-Oct-20 02:00N 39°56' W 070°53'1 1.1 21.9
2014-Oct-20 01:00N 39°56' W 070°52'0 0.0 21.9
2014-Oct-20 00:00N 39°56' W 070°52'1 0.2 21.9
2014-Oct-19 21:00N 39°57' W 070°51'1 0.5 22.0
2014-Oct-19 20:00N 39°57' W 070°51'1 0.7 22.0
2014-Oct-19 19:00N 39°58' W 070°51'1 0.7 22.1
2014-Oct-19 18:00N 39°57' W 070°51'1 0.9 22.1
2014-Oct-19 17:00N 39°58' W 070°51'0 0.1 22.1
2014-Oct-19 15:00N 39°58' W 070°51'1 0.6 22.1
2014-Oct-19 14:00N 39°57' W 070°50'0 0.0 22.2
2014-Oct-19 13:00N 39°57' W 070°50'0 0.2 22.2
2014-Oct-19 11:00N 39°57' W 070°50'0 0.4 22.2
2014-Oct-19 10:00N 39°57' W 070°50'1 0.4 22.2
2014-Oct-19 08:00N 39°57' W 070°49'0 0.5 22.2
2014-Oct-19 07:00N 39°57' W 070°49'1 0.2 22.3
2014-Oct-19 02:00N 39°58' W 070°48'0 0.0 22.4
2014-Oct-19 01:00N 39°58' W 070°48'1 0.8 22.4
2014-Oct-19 00:00N 39°59' W 070°49'0 0.0 22.5
2014-Oct-18 23:00N 39°59' W 070°49'1 0.3 22.5
2014-Oct-18 21:00N 39°58' W 070°49'0 0.3 22.5
2014-Oct-18 20:00N 39°58' W 070°49'0 0.2 22.5
2014-Oct-18 19:00N 39°58' W 070°49'0 0.0 22.5
2014-Oct-18 18:00N 39°58' W 070°49'0 0.2 22.5
2014-Oct-18 17:00N 39°59' W 070°49'0 0.1 22.5
2014-Oct-18 10:00N 39°58' W 070°49'0 0.1 22.4
2014-Oct-18 09:00N 39°58' W 070°49'0 0.0 22.4
2014-Oct-18 08:00N 39°58' W 070°49'0 0.0 22.4
2014-Oct-18 07:00N 39°58' W 070°49'1 0.9 22.4
2014-Oct-18 06:00N 39°58' W 070°48'0 0.0 22.4
2014-Oct-18 05:00N 39°58' W 070°48'0 0.1 22.4
2014-Oct-18 02:00N 39°58' W 070°48'0 0.1 22.5
2014-Oct-17 23:00N 39°58' W 070°48'0 0.1 22.5
2014-Oct-17 21:00N 39°58' W 070°48'0 0.4 22.5
2014-Oct-17 20:00N 39°59' W 070°47'0 0.2 22.5
2014-Oct-17 19:00N 39°59' W 070°47'0 0.2 22.5
2014-Oct-17 17:00N 39°59' W 070°47'1 0.3 22.5
2014-Oct-17 15:00N 39°59' W 070°47'1 0.1 22.5
2014-Oct-17 11:00N 39°60' W 070°46'1 0.3 22.5
2014-Oct-17 09:00N 39°60' W 070°45'1 0.6 22.5
2014-Oct-17 07:00N 40°00' W 070°44'2 1.6 22.6
2014-Oct-17 06:00N 40°01' W 070°42'1 0.1 22.6
2014-Oct-17 02:00N 40°02' W 070°42'0 0.2 22.6
2014-Oct-17 01:00N 40°02' W 070°42'1 0.9 22.6
2014-Oct-17 00:00N 40°03' W 070°43'0 0.0 22.6
2014-Oct-16 22:00N 40°03' W 070°43'1 0.5 22.7
2014-Oct-16 19:00N 40°01' W 070°42'3 0.2 22.7
2014-Oct-16 03:00N 39°60' W 070°38'0 0.0 22.8
2014-Oct-16 02:00N 39°60' W 070°38'1 0.4 22.8
2014-Oct-16 00:00N 40°00' W 070°38'1 0.7 22.8
2014-Oct-15 23:00N 39°60' W 070°38'1 0.3 22.9
2014-Oct-15 19:00N 39°59' W 070°37'0 0.2 22.9
2014-Oct-15 18:00N 39°59' W 070°37'0 0.2 22.8
2014-Oct-15 16:00N 39°59' W 070°37'2 0.3 22.8
2014-Oct-15 09:00N 39°57' W 070°37'2 0.7 22.7
2014-Oct-15 06:00N 39°55' W 070°36'0 0.0 22.7
2014-Oct-15 02:00N 39°55' W 070°36'0 0.2 22.7
2014-Oct-14 23:00N 39°55' W 070°36'1 0.8 22.6
2014-Oct-14 22:00N 39°55' W 070°37'0 0.1 22.6
2014-Oct-14 20:00N 39°55' W 070°37'1 0.3 22.6
2014-Oct-14 18:00N 39°54' W 070°37'2 0.9 22.6
2014-Oct-14 16:00N 39°53' W 070°38'3 0.5 22.5
2014-Oct-14 11:00N 39°50' W 070°38'1 0.8 22.4
2014-Oct-14 10:00N 39°50' W 070°37'0 0.3 22.4
2014-Oct-14 09:00N 39°49' W 070°37'0 0.3 22.4
2014-Oct-14 08:00N 39°49' W 070°37'0 0.1 22.4
2014-Oct-14 06:00N 39°49' W 070°36'1 0.2 22.5
2014-Oct-14 02:00N 39°48' W 070°37'0 0.5 22.5
2014-Oct-14 01:00N 39°48' W 070°38'3 2.7 22.5
2014-Oct-14 00:00N 39°46' W 070°39'0 0.0 22.6
2014-Oct-13 23:00N 39°46' W 070°39'1 0.9 22.6
2014-Oct-13 22:00N 39°45' W 070°40'0 0.0 22.6
2014-Oct-13 21:00N 39°45' W 070°40'1 1.1 22.6
2014-Oct-13 20:00N 39°44' W 070°41'2 1.2 22.6
2014-Oct-13 18:00N 39°43' W 070°38'1 0.7 22.6
2014-Oct-13 17:00N 39°42' W 070°38'2 1.9 22.6
2014-Oct-13 16:00N 39°41' W 070°36'1 0.2 22.6
2014-Oct-13 11:00N 39°40' W 070°35'0 0.4 22.5
2014-Oct-13 10:00N 39°40' W 070°35'1 0.6 22.5
2014-Oct-13 09:00N 39°39' W 070°36'1 0.7 22.5
2014-Oct-13 08:00N 39°40' W 070°37'1 1.2 22.5
2014-Oct-13 07:00N 39°39' W 070°36'3 0.7 22.4
2014-Oct-13 02:00N 39°35' W 070°36'1 0.9 22.5
2014-Oct-13 01:00N 39°35' W 070°35'4 4.2 22.5
2014-Oct-13 00:00N 39°33' W 070°30'0 0.0 22.5
2014-Oct-12 22:00N 39°33' W 070°30'0 0.4 22.5
2014-Oct-12 21:00N 39°32' W 070°29'0 0.0 22.6
2014-Oct-12 20:00N 39°32' W 070°29'1 0.7 22.6
2014-Oct-12 19:00N 39°32' W 070°29'1 0.6 22.6
2014-Oct-12 18:00N 39°32' W 070°28'1 0.8 22.6
2014-Oct-12 17:00N 39°32' W 070°27'1 1.0 22.6
2014-Oct-12 16:00N 39°33' W 070°26'3 0.5 22.6
2014-Oct-12 10:00N 39°30' W 070°27'2 2.5 22.6
2014-Oct-12 09:00N 39°27' W 070°26'0 0.0 22.6
2014-Oct-12 07:00N 39°27' W 070°26'6 3.2 22.6
2014-Oct-12 05:00N 39°24' W 070°18'2 0.4 22.7
2014-Oct-12 00:00N 39°25' W 070°16'3 3.3 22.8
2014-Oct-11 23:00N 39°27' W 070°12'1 0.3 22.8
2014-Oct-11 21:00N 39°27' W 070°12'0 0.2 22.9
2014-Oct-11 19:00N 39°28' W 070°12'0 0.2 23.0
2014-Oct-11 17:00N 39°27' W 070°12'1 0.7 23.1
2014-Oct-11 16:00N 39°27' W 070°12'3 1.6 23.1
2014-Oct-11 14:00N 39°25' W 070°08'0 0.0 23.1
2014-Oct-11 11:00N 39°25' W 070°08'3 2.8 23.0
2014-Oct-11 10:00N 39°24' W 070°05'0 0.0 23.0
2014-Oct-11 09:00N 39°24' W 070°05'0 0.0 23.0
2014-Oct-11 08:00N 39°24' W 070°05'1 0.8 23.0
2014-Oct-11 07:00N 39°24' W 070°04'5 2.5 23.0
2014-Oct-11 05:00N 39°26' W 069°58'0 0.0 23.0
2014-Oct-11 02:00N 39°26' W 069°58'1 1.1 22.8
2014-Oct-11 01:00N 39°27' W 069°57'1 1.4 22.8
2014-Oct-11 00:00N 39°28' W 069°56'0 0.0 22.8
2014-Oct-10 22:00N 39°28' W 069°56'0 0.2 22.8
2014-Oct-10 21:00N 39°28' W 069°56'1 0.8 22.8
2014-Oct-10 20:00N 39°27' W 069°55'1 0.6 22.9
2014-Oct-10 19:00N 39°27' W 069°55'1 0.9 22.9
2014-Oct-10 18:00N 39°27' W 069°54'0 0.0 22.9
2014-Oct-10 17:00N 39°27' W 069°54'3 2.7 22.9
2014-Oct-10 16:00N 39°27' W 069°50'3 1.6 23.0
2014-Oct-10 14:00N 39°29' W 069°47'1 0.2 23.1
2014-Oct-10 10:00N 39°29' W 069°46'2 1.6 23.1
2014-Oct-10 09:00N 39°30' W 069°44'   22.9

Dump ship's entire track history